JCSAT-5A (29045 NORAD) Tracking and Keplerian Element Data

This shows tracking and keplerian element data for the satellite.

Feedback or suggestion? Click here.




ElementValue
Catalog29045
NameJCSAT-5A
Epoch Orbit7197
Epoch Day354.22076611
Epoch Year2025
RAAN86.6388
Inclination0.6451
Eccentricity5.45E-05
Argument of Perigee288.9571
Mean Anonmoly284.9949
Mean Motion1.00270412
Decay Rate-3.04E-06
L11 29045U 06010A 25354.22076611 -.00000304 00000+0 00000+0 0 9997
L22 29045 0.6451 86.6388 0000545 288.9571 284.9949 1.00270412 71977



Live tracking and technical data element details for JCSAT-5A (NORAD 29045). JCSAT-5A can be tracked NOW for your location showing map with azimuth and elevation plus other details from your city location.







IsCatalogInMostPopularTable: catalog: 29045, numindb: 573
Update: records affected: 1



GetName: 29045 JCSAT-5A

Hit Count: updated at: Thu, 16 Apr 2026 06:51:31 GMT